Regional Weather Roundup
Issued by NWS

Home | Current Version | Previous Version | Graphics & Text | Print | Product List | Glossary On
Versions: 1 2 3 4 5 6 7 8 9 10 11 12 13 14 15 16 17 18 19 20 21 22 23 24 25 26 27 28 29 30 31 32 33 34 35 36 37 38 39 40 41 42 43 44 45 46 47 48 49 50
000
ASUS43 KFSD 240002
RWRSD

WEATHER ROUNDUP FOR SOUTH DAKOTA
NATIONAL WEATHER SERVICE SIOUX FALLS SD
700 PM CDT THU OCT 23 2014

NOTE: "FAIR" INDICATES FEW OR NO CLOUDS BELOW 12,000 FEET WITH NO
SIGNIFICANT WEATHER AND/OR OBSTRUCTIONS TO VISIBILITY.


SDZ001>005-009-010-012>017-240100-
NORTHWEST AND NORTH CENTRAL SOUTH DAKOTA

CITY           SKY/WX    TMP DP  RH WIND       PRES   REMARKS
BUFFALO          N/A     58  26  29 S8        29.82S
FAITH            N/A     57  32  38 SW3       29.88S
MOBRIDGE       CLOUDY    56  42  59 S3        29.84S
$$

SDZ012>016-024>037-041>051-057-063-072>074-240100-
SOUTHWEST AND SOUTH CENTRAL SOUTH DAKOTA

CITY           SKY/WX    TMP DP  RH WIND       PRES   REMARKS
RAPID CTY ARPT PTCLDY    54  36  50 N8        29.91R
PIERRE         CLOUDY    55  37  50 CALM      29.85R
CUSTER         PTCLDY    55  26  32 W5        30.00R
ELLSWORTH AFB  PTCLDY    60  35  39 W2        29.90R
PHILIP         CLOUDY    62  32  32 CALM      29.85S
PINE RIDGE     CLEAR     57  37  47 E3        29.92R
SPEARFISH      FAIR      50  37  62 SW7       29.94R
WINNER         FAIR      64  35  34 S7        29.88S
$$

SDZ004>011-016>023-039-040-240100-
NORTHEAST SOUTH DAKOTA

CITY           SKY/WX    TMP DP  RH WIND       PRES   REMARKS
ABERDEEN       PTCLDY    51  43  74 SE7       29.87R
WATERTOWN      CLEAR     56  45  66 S5        29.92R
SISSETON         N/A     55  41  59 SW6       29.88R
$$

SDZ017-020-022-023-036>040-048>070-240100-
SOUTHEAST SOUTH DAKOTA

CITY           SKY/WX    TMP DP  RH WIND       PRES   REMARKS
SIOUX FALLS    PTCLDY    59  46  62 S9        29.95R
HURON          MOCLDY    58  44  60 SE5       29.89R
CHAMBERLAIN    CLOUDY    56  39  52 SE3       29.88S
MITCHELL       PTCLDY    63  41  44 S6        29.90F
YANKTON        PTCLDY    63  46  55 S10       29.95R
$$

ABBREVIATIONS USED IN REMARKS
   TC - TEMPERATURE IN CELSIUS
  WCI - WIND CHILL INDEX
   HX - HEAT INDEX
  VSB - VISIBILITY




USA.gov is the U.S. government's official web portal to all federal, state and local government web resources and services.